This is the latest recevied weather packets stored in our database for station/object WA4OPQ-1. If no packets are shown the sender has not sent any weather packets the latest 10 day(s).
| Time | Temp. | Humidity | Pressure | Rain* | Wind** | Luminosity | Snow |
|---|---|---|---|---|---|---|---|
| 1787588719 | 27.22° C | 62% | 1014.8 hPa | 0 mm | 0.45 m/s, 309° | 628 W/m² | - |
| 1787588209 | 27.78° C | 63% | 1014.8 hPa | 0 mm | 0.89 m/s, 293° | 615 W/m² | - |
| 1787587619 | 27.78° C | 65% | 1015 hPa | 0 mm | 0 m/s | 702 W/m² | - |
| 1787587084 | 26.67° C | 62% | 1015.2 hPa | 0 mm | 0.45 m/s, 292° | 689 W/m² | - |
| 1787586594 | 27.22° C | 62% | 1015.1 hPa | 0 mm | 0.45 m/s, 298° | 655 W/m² | - |
| 1787586069 | 27.22° C | 64% | 1015 hPa | 0 mm | 0.45 m/s, 307° | 628 W/m² | - |
| 1787585574 | 26.11° C | 66% | 1014.7 hPa | 0 mm | 0 m/s | 710 W/m² | - |
| 1787585089 | 26.67° C | 67% | 1014.7 hPa | 0 mm | 0.89 m/s, 291° | 714 W/m² | - |
| 1787584581 | 26.11° C | 68% | 1014.7 hPa | 0 mm | 0.89 m/s, 292° | 788 W/m² | - |
| 1787584059 | 25.56° C | 72% | 1014.7 hPa | 0 mm | 0 m/s | 509 W/m² | - |
| 1787583569 | 25° C | 72% | 1014.8 hPa | 0 mm | 0 m/s | 292 W/m² | - |
| 1787583089 | 25° C | 71% | 1014.6 hPa | 0 mm | 0 m/s | 233 W/m² | - |
| 1787582551 | 24.44° C | 73% | 1014.5 hPa | 0 mm | 0 m/s | 58 W/m² | - |
| 1787582061 | 24.44° C | 73% | 1014.7 hPa | 0 mm | 0 m/s | 87 W/m² | - |
| 1787581569 | 23.89° C | 76% | 1015 hPa | 0 mm | 0 m/s | 399 W/m² | - |
| 1787581044 | 23.33° C | 76% | 1015 hPa | 0 mm | 0 m/s | 62 W/m² | - |
| 1787580541 | 22.78° C | 77% | 1015 hPa | 0 mm | 0 m/s | 101 W/m² | - |
| 1787580029 | 22.78° C | 81% | 1015 hPa | 0 mm | 0 m/s | 46 W/m² | - |
| 1787579509 | 22.22° C | 82% | 1015.1 hPa | 0 mm | 0 m/s | 39 W/m² | - |
| 1787578999 | 21.67° C | 83% | 1015.1 hPa | 0 mm | 0 m/s | 37 W/m² | - |
| 1787578514 | 21.67° C | 84% | 1015.2 hPa | 0 mm | 0 m/s | 37 W/m² | - |
| 1787578004 | 21.11° C | 84% | 1015.3 hPa | 0 mm | 0 m/s | 40 W/m² | - |
| 1787577441 | 20.56° C | 86% | 1015.4 hPa | 0 mm | 0 m/s | 38 W/m² | - |
| 1787576849 | 20° C | 87% | 1015.4 hPa | 0 mm | 0 m/s | 32 W/m² | - |
| 1787576310 | 19.44° C | 89% | 1015.3 hPa | 0 mm | 0 m/s | 28 W/m² | - |
* Rain latest hour (hover to see other rain measurements)
** Current wind speed in m/s (hover to see current wind gust speed)